TimeCST,TemperatureF,Dew PointF,Humidity,Sea Level PressureIn,VisibilityMPH,Wind Direction,Wind SpeedMPH,Gust SpeedMPH,PrecipitationIn,Events,Conditions,WindDirDegrees,DateUTC
12:15 AM,14.0,14.0,100,29.80,4.0,Calm,Calm,-,N/A,,Clear,0,2013-02-13 06:15:00
12:35 AM,14.0,14.0,100,29.80,5.0,Calm,Calm,-,N/A,,Clear,0,2013-02-13 06:35:00
12:55 AM,14.0,12.2,93,29.79,7.0,SSW,3.5,-,N/A,,Clear,200,2013-02-13 06:55:00
1:15 AM,14.0,14.0,100,29.79,5.0,SSW,4.6,-,N/A,,Clear,200,2013-02-13 07:15:00
1:35 AM,15.8,15.8,100,29.78,4.0,Calm,Calm,-,N/A,,Clear,0,2013-02-13 07:35:00
1:55 AM,15.8,15.8,100,29.78,4.0,SSW,3.5,-,N/A,,Clear,200,2013-02-13 07:55:00
2:15 AM,17.6,17.6,100,29.78,3.0,SSW,3.5,-,N/A,,Clear,210,2013-02-13 08:15:00
2:35 AM,19.4,19.4,100,29.78,2.5,South,3.5,-,N/A,,Clear,190,2013-02-13 08:35:00
2:55 AM,19.4,19.4,100,29.77,2.5,South,3.5,-,N/A,,Clear,180,2013-02-13 08:55:00
3:15 AM,19.4,19.4,100,29.76,3.0,South,3.5,-,N/A,,Clear,190,2013-02-13 09:15:00
3:35 AM,21.2,21.2,100,29.76,3.0,Calm,Calm,-,N/A,,Clear,0,2013-02-13 09:35:00
3:55 AM,21.2,21.2,100,29.75,3.0,SSW,3.5,-,N/A,,Scattered Clouds,210,2013-02-13 09:55:00
4:15 AM,21.2,21.2,100,29.75,4.0,Calm,Calm,-,N/A,,Mostly Cloudy,0,2013-02-13 10:15:00
4:35 AM,19.4,19.4,100,29.75,3.0,Calm,Calm,-,N/A,,Overcast,0,2013-02-13 10:35:00
4:55 AM,17.6,17.6,100,29.75,4.0,Calm,Calm,-,N/A,,Scattered Clouds,0,2013-02-13 10:55:00
5:15 AM,14.0,14.0,100,29.74,5.0,Calm,Calm,-,N/A,,Scattered Clouds,0,2013-02-13 11:15:00
5:35 AM,15.8,15.8,100,29.74,4.0,Calm,Calm,-,N/A,,Mostly Cloudy,0,2013-02-13 11:35:00
5:55 AM,15.8,14.0,93,29.75,5.0,Calm,Calm,-,N/A,,Overcast,0,2013-02-13 11:55:00
6:15 AM,15.8,15.8,100,29.74,5.0,Calm,Calm,-,N/A,,Overcast,0,2013-02-13 12:15:00
6:35 AM,19.4,19.4,100,29.73,5.0,South,3.5,-,N/A,,Overcast,170,2013-02-13 12:35:00
6:55 AM,21.2,21.2,100,29.73,5.0,Calm,Calm,-,N/A,,Overcast,0,2013-02-13 12:55:00
7:15 AM,21.2,21.2,100,29.73,5.0,Calm,Calm,-,N/A,,Overcast,0,2013-02-13 13:15:00
7:35 AM,21.2,21.2,100,29.73,5.0,South,3.5,-,N/A,,Overcast,190,2013-02-13 13:35:00
7:55 AM,21.2,21.2,100,29.73,5.0,Calm,Calm,-,N/A,,Overcast,0,2013-02-13 13:55:00
8:15 AM,23.0,23.0,100,29.73,5.0,South,3.5,-,N/A,,Overcast,190,2013-02-13 14:15:00
8:35 AM,23.0,23.0,100,29.73,7.0,Calm,Calm,-,N/A,,Overcast,0,2013-02-13 14:35:00
9:15 AM,24.8,24.8,100,29.72,7.0,Calm,Calm,-,N/A,,Overcast,0,2013-02-13 15:15:00
9:35 AM,26.6,26.6,100,29.72,10.0,Calm,Calm,-,N/A,,Overcast,0,2013-02-13 15:35:00
9:55 AM,26.6,26.6,100,29.72,10.0,WSW,4.6,-,N/A,,Overcast,250,2013-02-13 15:55:00
10:15 AM,28.4,26.6,93,29.71,10.0,West,4.6,-,N/A,,Overcast,270,2013-02-13 16:15:00
10:35 AM,30.2,24.8,80,29.71,10.0,West,5.8,-,N/A,,Overcast,280,2013-02-13 16:35:00
10:55 AM,30.2,23.0,75,29.71,10.0,WSW,3.5,-,N/A,,Mostly Cloudy,250,2013-02-13 16:55:00
11:15 AM,32.0,23.0,69,29.71,10.0,West,4.6,-,N/A,,Scattered Clouds,270,2013-02-13 17:15:00
11:35 AM,32.0,24.8,75,29.71,10.0,West,4.6,-,N/A,,Clear,270,2013-02-13 17:35:00
11:55 AM,32.0,23.0,69,29.70,10.0,West,4.6,-,N/A,,Clear,270,2013-02-13 17:55:00
12:15 PM,33.8,23.0,65,29.69,10.0,West,3.5,-,N/A,,Clear,260,2013-02-13 18:15:00
12:35 PM,33.8,23.0,65,29.68,10.0,Calm,Calm,-,N/A,,Mostly Cloudy,0,2013-02-13 18:35:00
12:55 PM,35.6,24.8,65,29.68,10.0,SW,4.6,-,N/A,,Overcast,220,2013-02-13 18:55:00
1:15 PM,35.6,24.8,65,29.67,10.0,SSW,4.6,-,N/A,,Overcast,210,2013-02-13 19:15:00
1:35 PM,35.6,24.8,65,29.68,10.0,WSW,5.8,-,N/A,,Mostly Cloudy,240,2013-02-13 19:35:00
1:55 PM,35.6,24.8,65,29.68,10.0,WSW,4.6,-,N/A,,Scattered Clouds,250,2013-02-13 19:55:00
2:15 PM,35.6,26.6,70,29.67,10.0,WSW,3.5,-,N/A,,Mostly Cloudy,240,2013-02-13 20:15:00
2:35 PM,37.4,24.8,60,29.67,10.0,SSW,5.8,-,N/A,,Mostly Cloudy,210,2013-02-13 20:35:00
2:55 PM,37.4,24.8,60,29.67,10.0,SW,4.6,-,N/A,,Mostly Cloudy,220,2013-02-13 20:55:00
3:15 PM,35.6,24.8,65,29.67,10.0,SW,4.6,-,N/A,,Mostly Cloudy,220,2013-02-13 21:15:00
3:35 PM,35.6,24.8,65,29.67,10.0,SW,5.8,-,N/A,,Overcast,220,2013-02-13 21:35:00
3:55 PM,35.6,24.8,65,29.66,10.0,SSW,3.5,-,N/A,,Overcast,210,2013-02-13 21:55:00
4:15 PM,35.6,24.8,65,29.66,10.0,SSW,4.6,-,N/A,,Overcast,210,2013-02-13 22:15:00
4:35 PM,35.6,24.8,65,29.66,10.0,SW,4.6,-,N/A,,Overcast,220,2013-02-13 22:35:00
4:55 PM,35.6,26.6,70,29.65,10.0,SSW,3.5,-,N/A,,Overcast,210,2013-02-13 22:55:00
5:15 PM,35.6,26.6,70,29.65,10.0,SSW,3.5,-,N/A,,Mostly Cloudy,200,2013-02-13 23:15:00
5:35 PM,35.6,26.6,70,29.65,10.0,SW,3.5,-,N/A,,Overcast,220,2013-02-13 23:35:00
5:55 PM,35.6,26.6,70,29.65,10.0,SSW,3.5,-,N/A,,Overcast,210,2013-02-13 23:55:00
6:15 PM,33.8,26.6,75,29.66,10.0,Calm,Calm,-,N/A,,Overcast,0,2013-02-14 00:15:00
6:35 PM,33.8,26.6,75,29.66,10.0,Calm,Calm,-,N/A,,Overcast,0,2013-02-14 00:35:00
6:55 PM,33.8,26.6,75,29.66,10.0,SW,4.6,-,N/A,,Overcast,220,2013-02-14 00:55:00
7:15 PM,33.8,26.6,75,29.66,10.0,Calm,Calm,-,N/A,,Overcast,0,2013-02-14 01:15:00
7:35 PM,33.8,26.6,75,29.66,10.0,Calm,Calm,-,N/A,,Overcast,0,2013-02-14 01:35:00
7:55 PM,33.8,26.6,75,29.65,10.0,South,3.5,-,N/A,,Mostly Cloudy,190,2013-02-14 01:55:00
8:15 PM,33.8,26.6,75,29.65,10.0,Calm,Calm,-,N/A,,Mostly Cloudy,0,2013-02-14 02:15:00
8:35 PM,32.0,26.6,80,29.64,10.0,Calm,Calm,-,N/A,,Mostly Cloudy,0,2013-02-14 02:35:00
8:55 PM,32.0,28.4,87,29.63,10.0,Calm,Calm,-,N/A,,Scattered Clouds,0,2013-02-14 02:55:00
9:15 PM,30.2,26.6,86,29.63,10.0,Calm,Calm,-,N/A,,Mostly Cloudy,0,2013-02-14 03:15:00
9:35 PM,30.2,28.4,93,29.61,10.0,East,3.5,-,N/A,,Overcast,100,2013-02-14 03:35:00
9:55 PM,30.2,30.2,100,29.61,10.0,Calm,Calm,-,N/A,,Overcast,0,2013-02-14 03:55:00
10:15 PM,32.0,28.4,87,29.60,7.0,Calm,Calm,-,N/A,,Overcast,0,2013-02-14 04:15:00
10:35 PM,32.0,28.4,87,29.59,7.0,SE,3.5,-,N/A,,Overcast,130,2013-02-14 04:35:00
10:55 PM,32.0,30.2,93,29.59,1.8,Calm,Calm,-,N/A,Snow,Light Snow,0,2013-02-14 04:55:00
11:15 PM,32.0,32.0,100,29.58,1.0,Calm,Calm,-,N/A,Snow,Light Snow,0,2013-02-14 05:15:00
11:35 PM,32.0,32.0,100,29.57,0.8,Calm,Calm,-,0.01,Snow,Light Snow,0,2013-02-14 05:35:00
11:55 PM,32.0,32.0,100,29.56,0.5,Calm,Calm,-,0.02,Snow,Snow,0,2013-02-14 05:55:00